User: anonymous
Location: Unspecified
(0.0000°N, 0.0000°E)
Time: 12:00:29
(UTC+02:00)
Language:

ATLAS V CENTAUR R/B - Orbit

View from above orbital plane
View from above orbital plane
View from above satellite
View from above satellite

Ground track
Ground track

The orbit data is extracted from the following two-line orbital elements,

1 27500U 02038B   14239.30976650  .00013031  00000-0  15124-2 0  9591
2 27500 017.8072 235.0673 6963554 044.4871 353.8794 02.70880650 96733
Epoch (UTC): 27 August 2014 07:26:03
Eccentricity: 0.6963554
inclination: 17.8072°
perigee height: 222 km
apogee height: 30496 km
right ascension of ascending node: 235.0673°
argument of perigee: 44.4871°
revolutions per day: 2.70880650
mean anomaly at epoch: 353.8794°
orbit number at epoch: 9673

The dashed part of the orbit path shows where the satellite is in the earth's shadow,  

DLR